Location: Kuppenheim
(48.8299°N, 8.2568°E)
Time: 08:55:18
(UTC+00:00)

Meteor 2-3 Rocket - Pass Details

Date: 20 June 2021
Orbit: 842 x 885 km, 81.2° (Epoch: 26 July)

Event Time Altitude Azimuth Distance (km) Brightness Sun altitude
Exits shadow 01:31:26 12° 175° (S) 2,357 5.5 -12.7°
Maximum altitude 01:36:38 62° 97° (E) 952 4.1 -12.3°
Drops below altitude 10° 01:42:08 10° 18° (NNE) 2,473 7.5 -11.8°
Sets 01:44:35 0° 15° (NNE) 3,412 8.5 -11.6°
